Wind_Speed
32 31 28 25 23 21 21 19 16 14 12 11 11 7 7 8 10 11 14 17 18 19 20 26 29 34 38 39 37 32 29 21 14 14 11 14 13 13 12 15 21 18 17 12 6
35 32 29 26 25 23 22 21 18 16 13 10 10 9 9 10 12 12 18 21 22 22 23 26 30 30 33 35 34 31 24 21 9 9 6 7 12 12 11 17 21 14 13 10 9
38 34 32 28 28 26 24 24 21 20 15 14 13 11 12 11 12 15 20 22 24 26 30 32 31 33 35 33 30 33 28 24 11 12 9 16 14 15 13 15 18 20 10 9 8
42 38 35 31 30 29 27 26 24 23 19 16 16 15 12 14 16 18 21 24 25 28 30 34 36 39 40 39 35 35 34 27 20 15 17 16 17 22 18 16 18 23 13 12 9
45 42 39 36 33 32 31 29 29 27 23 20 18 18 18 18 20 21 22 25 27 30 33 36 36 38 38 36 34 34 35 31 24 19 20 18 20 22 18 15 15 27 17 11 10
48 45 43 40 37 35 33 32 30 30 29 25 24 23 22 22 24 23 25 25 27 31 33 35 35 37 37 35 34 32 35 31 28 22 15 18 19 20 15 16 20 24 22 15 7
52 49 46 44 41 39 37 36 34 34 33 31 29 28 28 27 26 27 27 28 29 31 34 36 37 37 37 35 33 32 34 32 28 26 19 11 16 22 24 25 22 24 16 16 12
55 54 50 48 46 43 42 39 37 36 35 33 32 32 31 30 30 31 31 32 32 33 35 38 38 37 38 34 33 32 33 34 32 31 31 27 19 18 19 19 19 16 12 13 13
58 57 55 52 50 48 45 42 41 40 38 37 36 36 35 35 35 35 35 36 36 36 37 39 41 39 38 34 34 32 32 32 28 30 27 26 24 17 16 15 17 15 9 7 6
62 59 58 55 55 52 49 48 46 45 42 41 41 42 41 39 38 38 38 37 38 39 39 41 43 38 36 35 34 34 31 30 27 24 23 21 21 23 15 12 13 12 9 6 3
62 63 61 58 55 54 53 53 51 48 47 44 45 46 46 43 42 41 40 41 42 42 43 43 41 41 36 35 35 34 34 33 32 27 23 19 14 19 19 13 11 10 9 6 1
63 63 62 62 59 59 57 53 52 51 50 48 48 48 48 47 45 45 44 45 46 45 44 44 43 43 39 36 35 36 36 36 34 31 27 23 14 10 15 13 11 7 7 6 1
64 63 62 61 61 62 59 57 54 53 53 53 52 51 51 51 49 49 50 50 49 49 48 45 44 44 43 39 38 37 39 37 36 35 29 25 21 11 10 13 12 12 3 4 7
68 65 63 61 60 60 60 60 57 56 55 55 53 53 53 53 53 53 53 52 51 48 47 46 47 46 43 42 42 39 40 39 38 37 30 27 23 17 12 12 12 14 10 6 5
71 69 67 64 62 60 58 57 56 55 54 55 55 55 56 54 55 53 52 52 52 52 49 50 46 42 41 41 42 41 38 38 39 36 32 28 25 20 16 14 11 11 11 10 2
71 71 70 67 66 65 63 62 61 59 59 56 56 56 56 55 55 54 53 53 52 51 49 48 46 43 43 42 42 40 38 37 39 35 32 30 27 22 17 15 12 9 9 11 7
69 70 70 71 71 68 67 67 66 64 63 60 60 59 56 54 55 53 52 51 50 49 50 48 46 44 44 43 40 39 38 37 37 36 34 31 29 24 18 17 14 8 8 10 8
65 67 70 69 68 68 68 68 68 65 62 59 59 58 56 54 53 54 51 50 50 49 47 46 44 43 42 43 43 40 39 38 37 37 37 33 28 26 21 20 12 9 11 12 6
65 64 65 67 68 69 70 69 64 62 58 61 60 57 55 54 52 50 51 50 47 45 45 45 46 44 44 44 46 44 41 38 36 36 39 34 29 29 25 20 16 13 15 15 15
71 68 65 63 63 64 67 66 63 61 60 60 59 56 54 53 51 48 48 48 44 42 43 47 45 44 43 42 41 41 42 41 37 37 39 38 31 34 26 18 17 17 16 20 26
75 72 68 65 62 61 63 62 61 57 57 56 55 55 55 51 49 48 49 46 42 43 43 48 46 47 44 43 40 39 40 38 39 37 37 42 36 32 30 18 18 21 20 32 33
73 74 71 69 66 65 67 62 59 56 54 54 53 54 53 50 48 46 46 45 45 44 44 46 48 47 47 44 41 40 41 38 37 38 37 36 41 36 32 19 14 18 25 29 35
72 74 71 70 68 70 71 65 59 57 55 56 53 52 52 51 50 47 46 45 44 44 43 43 45 48 48 46 42 40 37 34 32 33 40 36 39 38 34 26 14 18 27 31 34
72 72 69 68 67 67 68 66 61 57 55 57 56 53 52 50 50 47 44 45 45 42 42 43 44 45 43 46 43 40 38 36 33 34 40 40 39 43 39 30 23 21 22 33 36
71 66 64 64 66 67 68 66 61 58 56 54 55 52 51 48 46 47 48 45 42 40 40 40 43 42 40 42 42 41 42 43 40 35 37 43 43 46 43 33 26 22 23 29 39
69 67 68 66 67 67 65 63 59 57 53 53 51 50 49 47 47 46 46 46 40 37 37 38 41 42 43 42 42 43 47 47 43 40 41 42 47 45 46 44 33 25 24 27 34
75 71 72 70 68 66 63 59 55 53 49 51 48 47 45 42 44 44 46 44 41 41 40 38 40 42 43 45 46 47 50 48 48 47 44 42 48 49 48 46 40 36 32 34 37
Wind_Direction
197 201 204 205 205 206 209 206 204 204 212 210 214 224 256 270 298 314 324 332 342 346 348 348 348 351 356 2 8 1 359 359 24 69 32 8 27 9 8 343 328 327 297 296 293
199 201 204 210 208 207 209 208 207 204 205 216 215 232 242 275 294 309 318 324 332 337 340 340 342 346 350 358 6 358 8 7 55 68 113 339 357 28 11 3 350 345 279 286 310
202 203 204 209 210 208 210 211 210 206 208 211 229 243 255 276 290 300 308 317 325 329 332 333 339 344 345 353 3 356 2 12 37 341 324 304 311 307 290 335 351 5 333 297 297
204 206 207 209 208 207 209 210 217 214 220 229 239 241 250 267 283 293 303 311 317 323 327 329 333 339 342 347 353 358 0 3 4 338 316 308 295 311 317 331 356 3 347 323 307
208 209 210 211 211 212 214 215 218 226 230 240 243 246 255 265 278 290 299 307 316 319 323 326 331 336 343 345 349 353 355 353 357 350 327 322 317 320 306 298 338 340 351 329 317
212 213 214 214 214 213 216 219 220 225 233 242 248 253 257 264 274 286 295 303 310 315 321 322 326 331 338 339 342 347 348 350 347 354 342 314 311 317 324 323 305 327 339 327 313
215 216 217 217 216 217 219 224 226 231 238 245 249 252 256 265 272 279 288 296 304 310 315 317 321 326 331 334 336 343 344 349 341 341 350 316 306 317 316 315 305 311 329 330 316
218 217 220 221 222 220 222 224 230 234 239 242 246 253 258 263 270 277 283 288 296 302 309 312 318 321 324 329 330 331 341 347 341 340 341 343 339 327 325 317 322 342 353 334 314
222 222 222 223 225 226 225 226 229 234 238 243 246 251 259 262 267 273 281 285 292 296 304 308 312 317 319 323 323 325 333 338 339 336 337 333 325 324 329 330 334 343 352 323 314
223 225 225 225 226 229 232 234 234 237 241 246 249 252 256 260 264 270 277 281 286 293 298 305 308 311 315 316 317 320 330 334 332 331 325 325 318 319 331 337 345 341 328 300 296
225 227 228 229 231 232 233 236 238 241 246 247 250 253 257 262 265 270 276 279 285 292 296 301 305 306 310 310 312 314 321 324 325 322 321 328 309 312 319 337 339 325 316 300 281
227 228 230 231 232 235 234 238 242 244 247 251 254 257 260 262 266 270 275 277 283 288 292 295 300 301 303 306 307 308 314 317 318 319 317 320 322 295 298 311 307 314 316 292 306
227 229 231 233 236 238 238 240 243 247 249 252 254 257 262 264 267 271 274 279 284 286 288 292 294 297 299 301 301 303 308 309 312 313 317 319 322 317 275 292 296 301 329 282 328
229 230 231 233 235 238 239 242 245 247 251 254 257 260 263 267 269 272 275 279 282 285 287 288 290 294 296 296 296 299 301 304 308 311 312 314 316 315 296 274 279 290 322 329 335
229 232 233 234 238 240 241 244 247 250 253 254 258 261 263 266 270 273 277 279 281 283 287 289 290 293 294 295 296 298 297 301 303 307 307 310 310 310 304 282 279 287 314 317 319
231 232 234 236 238 239 241 243 246 249 251 254 257 261 264 266 270 274 276 278 281 283 285 285 291 292 291 291 292 294 295 297 299 305 304 302 302 306 304 287 270 284 287 289 284
231 233 235 235 238 241 243 244 246 249 253 255 258 261 264 267 269 272 276 279 280 283 284 285 285 288 291 292 292 292 293 295 299 298 296 297 298 298 299 284 260 239 254 261 281
231 233 235 237 239 241 243 244 247 249 253 257 258 259 261 265 269 272 274 277 278 282 283 284 283 285 288 290 288 289 292 293 293 295 296 293 298 296 289 277 259 213 221 245 237
231 233 235 237 239 241 243 245 246 248 252 255 256 259 263 265 267 270 275 277 279 283 283 282 284 285 287 289 291 296 292 291 292 292 289 290 290 281 280 279 273 217 194 204 208
231 232 234 236 238 241 244 245 247 249 250 253 257 262 263 264 267 270 274 277 280 282 283 280 280 281 282 285 287 287 291 292 288 287 287 288 285 279 275 270 266 253 213 186 190
231 232 234 235 238 240 244 244 246 246 249 252 254 256 261 265 266 270 273 273 275 282 282 283 284 284 283 283 285 284 283 284 287 287 286 286 285 286 281 262 243 244 215 186 201
230 232 234 235 236 239 243 243 244 246 249 252 253 255 260 262 263 265 270 275 279 279 278 278 280 280 281 281 282 281 283 286 285 285 278 281 286 284 280 271 227 232 240 210 218
231 233 233 236 237 240 243 245 246 247 250 253 255 256 259 261 262 265 268 270 271 273 275 277 279 283 285 284 281 281 282 282 284 282 282 281 279 278 277 275 250 233 234 231 221
231 232 233 235 237 240 242 244 244 245 246 252 254 255 258 261 267 267 267 268 269 270 271 273 274 276 279 282 284 288 285 279 273 271 275 279 279 278 276 271 258 239 230 244 236
232 234 235 235 237 238 241 243 244 246 248 250 257 260 262 264 266 270 269 267 270 271 272 273 274 276 277 280 285 286 285 282 279 277 276 277 276 275 277 272 260 243 232 234 247
231 232 234 234 235 238 240 242 244 247 249 252 254 259 262 265 267 267 269 272 270 269 269 272 277 281 283 281 282 283 281 281 284 282 276 277 277 278 277 278 273 262 239 227 233
229 230 232 233 236 238 240 243 244 246 246 251 253 256 258 260 264 267 269 272 275 274 272 273 276 278 280 282 283 281 281 285 284 283 285 283 282 278 274 271 266 262 250 241 230
Height
11028 11032 11036 11040 11044 11047 11049 11052 11055 11057 11057 11058 11060 11060 11058 11057 11056 11056 11055 11054 11054 11056 11055 11051 11048 11042 11036 11034 11031 11027 11023 11019 11013 11007 11004 11002 11003 11002 11000 11002 11000 10999 10994 10990 10993
11025 11030 11034 11038 11042 11045 11048 11051 11054 11056 11057 11058 11058 11059 11058 11057 11056 11055 11054 11051 11050 11051 11053 11052 11051 11047 11044 11039 11035 11032 11027 11021 11013 11009 11007 11002 11004 11004 11003 11003 11004 11000 10995 10991 10990
11022 11027 11031 11035 11039 11043 11046 11049 11052 11055 11056 11057 11058 11058 11058 11057 11056 11055 11053 11050 11049 11047 11043 11040 11044 11044 11041 11039 11038 11032 11025 11022 11019 11011 11008 11004 11002 11003 11003 11003 11000 10998 10994 10991 10990
11018 11023 11028 11032 11036 11040 11043 11047 11050 11052 11054 11055 11056 11057 11057 11057 11056 11054 11052 11050 11047 11045 11044 11041 11037 11033 11032 11029 11027 11027 11022 11018 11016 11014 11010 11007 11005 11003 10999 10999 10997 10997 10995 10990 10988
11013 11018 11024 11028 11032 11037 11040 11044 11047 11050 11052 11053 11054 11055 11056 11056 11055 11053 11051 11048 11046 11043 11041 11038 11037 11034 11032 11030 11027 11024 11021 11019 11015 11013 11008 11005 11002 11001 11000 10999 10996 10995 10994 10993 10986
11009 11014 11019 11024 11028 11033 11037 11041 11044 11047 11049 11050 11051 11053 11054 11054 11053 11052 11050 11048 11046 11042 11040 11038 11037 11034 11032 11030 11027 11026 11023 11018 11015 11013 11009 11005 11004 11002 10999 10997 10997 10996 10993 10993 10992
11003 11008 11013 11019 11024 11028 11033 11037 11040 11043 11046 11047 11048 11049 11050 11051 11051 11051 11049 11047 11045 11043 11040 11038 11036 11034 11032 11029 11028 11025 11022 11019 11016 11012 11010 11009 11003 10996 10994 10994 10996 10995 10991 10990 10991
10997 11002 11008 11013 11018 11023 11028 11032 11036 11038 11040 11043 11045 11046 11046 11047 11048 11048 11047 11046 11044 11043 11040 11037 11035 11033 11031 11028 11027 11024 11021 11015 11008 11004 10999 10998 10998 10997 10995 10995 10994 10994 10992 10992 10992
10989 10995 11002 11007 11012 11017 11022 11026 11030 11032 11035 11037 11039 11042 11043 11044 11044 11044 11044 11043 11041 11040 11038 11035 11033 11032 11028 11026 11024 11023 11022 11018 11011 11005 11001 10998 10995 10995 10995 10995 10992 10991 10991 10991 10990
10982 10988 10994 11000 11006 11011 11015 11019 11023 11026 11029 11031 11034 11035 11038 11039 11040 11040 11040 11039 11038 11037 11035 11033 11031 11030 11028 11025 11022 11020 11019 11018 11015 11011 11006 11002 10995 10990 10993 10992 10990 10988 10986 10987 10988
10974 10980 10986 10993 10998 11003 11007 11011 11016 11020 11022 11025 11027 11029 11031 11033 11034 11035 11035 11035 11033 11032 11031 11029 11028 11026 11025 11022 11019 11016 11015 11013 11013 11010 11007 11004 10998 10991 10988 10989 10989 10988 10987 10988 10985
10964 10971 10978 10984 10990 10993 10999 11005 11009 11011 11015 11018 11020 11021 11023 11026 11027 11029 11029 11029 11028 11028 11026 11026 11024 11021 11019 11018 11015 11011 11010 11008 11006 11005 11003 11002 11000 10996 10990 10989 10987 10987 10987 10988 10986
10955 10962 10969 10976 10981 10985 10992 10995 11000 11004 11007 11010 11012 11014 11015 11017 11020 11021 11022 11022 11022 11022 11021 11022 11018 11015 11013 11012 11010 11008 11004 11003 11000 10998 10998 10996 10996 10996 10993 10988 10984 10983 10986 10987 10984
10945 10952 10959 10966 10972 10976 10982 10987 10993 10995 10998 11001 11004 11006 11007 11010 11011 11013 11014 11014 11014 11014 11013 11014 11013 11011 11008 11005 11002 11003 10998 10996 10994 10992 10992 10991 10990 10990 10990 10988 10985 10982 10983 10983 10980
10934 10941 10949 10956 10961 10967 10974 10979 10982 10985 10989 10993 10996 10998 11000 11002 11001 11005 11005 11005 11005 11005 11006 11003 11004 11004 11001 10998 10995 10994 10993 10989 10986 10986 10985 10984 10983 10984 10983 10984 10984 10982 10981 10979 10977
10924 10931 10938 10946 10950 10956 10963 10968 10972 10975 10977 10984 10987 10990 10991 10994 10993 10994 10996 10997 10996 10997 10996 10995 10995 10994 10992 10990 10988 10987 10986 10983 10979 10980 10978 10976 10976 10977 10978 10978 10979 10980 10980 10975 10974
10914 10920 10927 10932 10939 10948 10953 10957 10961 10968 10969 10976 10977 10979 10983 10985 10985 10987 10987 10988 10987 10988 10986 10987 10986 10985 10981 10980 10979 10978 10977 10975 10974 10970 10969 10969 10968 10969 10971 10971 10976 10979 10977 10974 10973
10903 10909 10915 10922 10931 10935 10939 10943 10953 10961 10962 10964 10967 10968 10972 10976 10977 10976 10979 10980 10979 10980 10978 10976 10976 10976 10974 10970 10968 10970 10969 10968 10965 10963 10961 10962 10964 10963 10963 10962 10970 10974 10973 10970 10971
10891 10898 10903 10912 10918 10923 10926 10931 10943 10950 10956 10949 10952 10958 10961 10965 10969 10969 10968 10970 10972 10971 10969 10965 10965 10965 10964 10960 10955 10958 10960 10960 10959 10957 10950 10953 10956 10951 10954 10957 10962 10965 10969 10969 10966
10879 10885 10893 10900 10907 10911 10913 10920 10931 10937 10942 10941 10945 10948 10950 10954 10957 10960 10959 10960 10962 10961 10959 10954 10956 10957 10956 10955 10952 10950 10949 10948 10949 10947 10941 10942 10945 10940 10946 10955 10958 10958 10962 10963 10961
10866 10873 10882 10891 10897 10901 10901 10909 10916 10925 10928 10933 10937 10936 10939 10943 10947 10949 10948 10952 10954 10952 10950 10943 10945 10943 10944 10944 10946 10943 10939 10940 10938 10939 10936 10928 10932 10935 10935 10946 10948 10949 10954 10956 10953
10851 10858 10868 10876 10885 10888 10887 10897 10905 10912 10918 10920 10925 10927 10930 10934 10937 10940 10940 10941 10941 10942 10942 10935 10933 10933 10932 10934 10936 10933 10929 10929 10929 10927 10926 10925 10919 10922 10923 10934 10942 10944 10945 10948 10946
10838 10843 10855 10865 10872 10874 10874 10886 10898 10903 10907 10908 10913 10917 10920 10922 10924 10931 10932 10934 10934 10931 10929 10927 10924 10922 10920 10920 10922 10922 10921 10921 10920 10917 10911 10915 10913 10912 10915 10922 10931 10933 10934 10936 10936
10822 10830 10845 10853 10859 10863 10866 10872 10882 10890 10895 10894 10898 10905 10908 10913 10915 10918 10922 10921 10919 10922 10921 10918 10915 10914 10914 10908 10909 10910 10909 10908 10908 10908 10904 10904 10906 10900 10904 10913 10921 10925 10928 10923 10926
10811 10825 10835 10840 10844 10845 10852 10859 10870 10878 10883 10888 10888 10894 10898 10904 10906 10903 10904 10908 10911 10910 10909 10908 10903 10905 10903 10900 10899 10899 10896 10893 10895 10899 10898 10891 10892 10890 10892 10901 10910 10916 10921 10919 10913
10803 10812 10816 10822 10825 10832 10840 10849 10859 10866 10873 10877 10882 10887 10890 10892 10892 10893 10890 10890 10898 10899 10897 10897 10893 10893 10890 10891 10892 10889 10883 10881 10883 10885 10884 10883 10878 10882 10882 10886 10895 10904 10910 10912 10909
10784 10795 10798 10806 10812 10819 10829 10840 10850 10856 10865 10867 10874 10875 10878 10883 10881 10879 10877 10880 10882 10883 10885 10887 10885 10884 10882 10879 10877 10874 10871 10871 10870 10869 10873 10873 10865 10866 10866 10871 10882 10888 10892 10895 10896